• In Uzbekistan
  • List of Countries
  • For 7 days
  • Water Temperature
  • Satellite Maps
  • Weather Map
  • Weather Widgets
  • user-avatar
    Login

    Hourly Weather Dubai

    Today, 12 November, Monday

    Time Temperature Precipitation Wind Pressure Humidity
    00:00 +29°C° 0 mm 3 mps 760 mmHg 59%
    01:00 +29°C° 0 mm 2 mps 759 mmHg 59%
    02:00 +28°C° 0 mm 2 mps 759 mmHg 59%
    03:00 +28°C° 0 mm 2 mps 759 mmHg 58%
    04:00 +28°C° 0 mm 2 mps 759 mmHg 56%
    05:00 +28°C° 0 mm 2 mps 759 mmHg 57%
    06:00 +28°C° 0 mm 1 mps 759 mmHg 57%
    07:00 +27°C° 0 mm 1 mps 760 mmHg 58%
    08:00 +29°C° 0 mm 2 mps 760 mmHg 56%
    09:00 +30°C° 0 mm 2 mps 760 mmHg 54%
    10:00 +31°C° 0 mm 2 mps 760 mmHg 52%
    11:00 +33°C° 0 mm 3 mps 760 mmHg 49%
    12:00 +34°C° 0 mm 4 mps 760 mmHg 47%
    13:00 +35°C° 0 mm 5 mps 760 mmHg 45%
    14:00 +34°C° 0 mm 5 mps 759 mmHg 47%
    15:00 +34°C° 0 mm 6 mps 759 mmHg 48%
    16:00 +33°C° 0 mm 5 mps 759 mmHg 51%
    17:00 +33°C° 0 mm 5 mps 759 mmHg 54%
    18:00 +32°C° 0 mm 5 mps 759 mmHg 58%
    19:00 +30°C° 0 mm 5 mps 759 mmHg 61%
    20:00 +30°C° 0 mm 5 mps 759 mmHg 61%
    21:00 +30°C° 0 mm 5 mps 759 mmHg 62%
    22:00 +30°C° 0 mm 5 mps 759 mmHg 63%
    23:00 +30°C° 0 mm 5 mps 759 mmHg 64%

    Tomorrow, 13 November, Tuesday

    Time Temperature Precipitation Wind Pressure Humidity
    00:00 +29°C° 0 mm 5 mps 759 mmHg 66%
    01:00 +29°C° 0 mm 5 mps 759 mmHg 67%
    02:00 +29°C° 0 mm 6 mps 758 mmHg 67%
    03:00 +29°C° 0 mm 6 mps 758 mmHg 68%
    04:00 +29°C° 0 mm 6 mps 758 mmHg 68%
    05:00 +29°C° 0 mm 6 mps 758 mmHg 66%
    06:00 +29°C° 0 mm 6 mps 758 mmHg 65%
    07:00 +29°C° 0 mm 6 mps 759 mmHg 63%
    08:00 +30°C° 0 mm 7 mps 759 mmHg 54%
    09:00 +33°C° 0 mm 7 mps 759 mmHg 45%
    10:00 +34°C° 0 mm 8 mps 759 mmHg 37%
    11:00 +34°C° 0 mm 8 mps 759 mmHg 36%
    12:00 +35°C° 0 mm 8 mps 758 mmHg 35%
    13:00 +35°C° 0 mm 8 mps 758 mmHg 34%
    14:00 +35°C° 0 mm 8 mps 758 mmHg 36%
    15:00 +34°C° 0 mm 8 mps 758 mmHg 37%
    16:00 +34°C° 0 mm 7 mps 757 mmHg 39%
    17:00 +33°C° 0 mm 7 mps 758 mmHg 43%
    18:00 +32°C° 0 mm 6 mps 758 mmHg 47%
    19:00 +30°C° 0 mm 6 mps 758 mmHg 52%
    20:00 +30°C° 0 mm 6 mps 758 mmHg 54%
    21:00 +30°C° 0 mm 5 mps 758 mmHg 56%
    22:00 +29°C° 0 mm 5 mps 758 mmHg 58%
    23:00 +29°C° 0 mm 5 mps 758 mmHg 59%

    Day after tomorrow, 14 November, Wednesday

    Time Temperature Precipitation Wind Pressure Humidity
    00:00 +29°C° 0 mm 5 mps 758 mmHg 61%
    01:00 +29°C° 0 mm 5 mps 758 mmHg 62%
    02:00 +29°C° 0 mm 5 mps 758 mmHg 63%
    03:00 +28°C° 0 mm 5 mps 757 mmHg 64%
    04:00 +28°C° 0 mm 4 mps 757 mmHg 65%
    05:00 +28°C° 0 mm 4 mps 758 mmHg 66%
    06:00 +28°C° 0 mm 3 mps 758 mmHg 66%
    07:00 +28°C° 0 mm 3 mps 758 mmHg 66%
    08:00 +29°C° 0 mm 3 mps 758 mmHg 61%
    09:00 +30°C° 0 mm 2 mps 759 mmHg 56%
    10:00 +31°C° 0 mm 2 mps 759 mmHg 50%
    11:00 +32°C° 0 mm 2 mps 759 mmHg 46%
    12:00 +34°C° 0 mm 2 mps 758 mmHg 42%
    13:00 +35°C° 0 mm 2 mps 758 mmHg 38%
    14:00 +35°C° 0 mm 3 mps 757 mmHg 37%
    15:00 +35°C° 0 mm 3 mps 757 mmHg 37%
    16:00 +35°C° 0 mm 4 mps 757 mmHg 36%
    17:00 +34°C° 0 mm 4 mps 757 mmHg 39%
    18:00 +33°C° 0 mm 4 mps 757 mmHg 43%
    19:00 +32°C° 0 mm 4 mps 758 mmHg 46%
    20:00 +32°C° 0 mm 4 mps 758 mmHg 47%
    21:00 +30°C° 0 mm 4 mps 758 mmHg 48%
    22:00 +30°C° 0 mm 4 mps 759 mmHg 49%
    23:00 +30°C° 0 mm 3 mps 759 mmHg 50%

    15 November, Thursday

    Time Temperature Precipitation Wind Pressure Humidity
    00:00 +29°C° 0 mm 3 mps 758 mmHg 50%
    01:00 +29°C° 0 mm 3 mps 758 mmHg 51%
    02:00 +29°C° 0 mm 3 mps 758 mmHg 50%
    03:00 +29°C° 0 mm 3 mps 758 mmHg 50%
    04:00 +28°C° 0 mm 2 mps 758 mmHg 50%
    05:00 +28°C° 0 mm 3 mps 758 mmHg 49%
    06:00 +28°C° 0 mm 3 mps 759 mmHg 49%
    07:00 +28°C° 0 mm 3 mps 759 mmHg 48%
    08:00 +30°C° 0 mm 4 mps 760 mmHg 45%
    09:00 +32°C° 0 mm 4 mps 760 mmHg 41%
    10:00 +34°C° 0 mm 4 mps 761 mmHg 38%
    11:00 +34°C° 0 mm 3 mps 760 mmHg 37%
    12:00 +35°C° 0 mm 2 mps 760 mmHg 37%
    13:00 +35°C° 0 mm 1 mps 759 mmHg 36%
    14:00 +36°C° 0 mm 2 mps 759 mmHg 36%
    15:00 +36°C° 0 mm 3 mps 759 mmHg 35%
    16:00 +36°C° 0 mm 4 mps 758 mmHg 35%
    17:00 +35°C° 0 mm 4 mps 759 mmHg 39%
    18:00 +34°C° 0 mm 5 mps 759 mmHg 44%
    19:00 +33°C° 0 mm 5 mps 759 mmHg 48%
    20:00 +32°C° 0 mm 5 mps 759 mmHg 52%
    21:00 +32°C° 0 mm 5 mps 760 mmHg 55%
    22:00 +30°C° 0 mm 5 mps 760 mmHg 58%
    23:00 +30°C° 0 mm 4 mps 760 mmHg 58%

    16 November, Friday

    Time Temperature Precipitation Wind Pressure Humidity
    00:00 +29°C° 0 mm 4 mps 760 mmHg 59%
    01:00 +29°C° 0 mm 4 mps 759 mmHg 59%
    02:00 +29°C° 0 mm 4 mps 759 mmHg 58%
    03:00 +29°C° 0 mm 4 mps 759 mmHg 57%
    04:00 +28°C° 0 mm 4 mps 759 mmHg 56%
    05:00 +28°C° 0 mm 4 mps 759 mmHg 54%
    06:00 +28°C° 0 mm 4 mps 760 mmHg 53%
    07:00 +28°C° 0 mm 4 mps 760 mmHg 51%
    08:00 +30°C° 0 mm 4 mps 761 mmHg 47%
    09:00 +32°C° 0 mm 4 mps 761 mmHg 42%
    10:00 +33°C° 0 mm 3 mps 762 mmHg 37%
    11:00 +34°C° 0 mm 3 mps 761 mmHg 35%
    12:00 +35°C° 0 mm 2 mps 760 mmHg 34%
    13:00 +35°C° 0 mm 1 mps 760 mmHg 33%
    14:00 +35°C° 0 mm 2 mps 760 mmHg 34%
    15:00 +35°C° 0 mm 3 mps 759 mmHg 36%
    16:00 +35°C° 0 mm 4 mps 759 mmHg 37%
    17:00 +34°C° 0 mm 4 mps 759 mmHg 41%
    18:00 +33°C° 0 mm 3 mps 760 mmHg 45%
    19:00 +31°C° 0 mm 3 mps 760 mmHg 49%
    20:00 +30°C° 0 mm 3 mps 760 mmHg 50%
    21:00 +30°C° 0 mm 2 mps 760 mmHg 51%
    22:00 +30°C° 0 mm 2 mps 761 mmHg 51%
    23:00 +29°C° 0 mm 2 mps 760 mmHg 51%

    17 November, Saturday

    Time Temperature Precipitation Wind Pressure Humidity
    00:00 +29°C° 0 mm 2 mps 760 mmHg 51%
    01:00 +29°C° 0 mm 2 mps 759 mmHg 51%
    02:00 +29°C° 0 mm 2 mps 759 mmHg 51%
    03:00 +28°C° 0 mm 2 mps 759 mmHg 50%
    04:00 +28°C° 0 mm 2 mps 759 mmHg 50%
    05:00 +28°C° 0 mm 2 mps 759 mmHg 49%
    06:00 +28°C° 0 mm 2 mps 760 mmHg 47%
    07:00 +28°C° 0 mm 2 mps 760 mmHg 46%
    08:00 +29°C° 0 mm 2 mps 760 mmHg 42%
    09:00 +31°C° 0 mm 1 mps 761 mmHg 39%
    10:00 +33°C° 0 mm 1 mps 761 mmHg 35%
    11:00 +34°C° 0 mm 2 mps 760 mmHg 33%
    12:00 +35°C° 0 mm 2 mps 759 mmHg 31%
    13:00 +36°C° 0 mm 3 mps 759 mmHg 29%
    14:00 +35°C° 0 mm 4 mps 759 mmHg 33%
    15:00 +35°C° 0 mm 5 mps 758 mmHg 37%
    16:00 +34°C° 0 mm 5 mps 758 mmHg 40%
    17:00 +33°C° 0 mm 5 mps 758 mmHg 47%
    18:00 +32°C° 0 mm 4 mps 759 mmHg 54%
    19:00 +30°C° 0 mm 3 mps 759 mmHg 61%
    20:00 +29°C° 0 mm 3 mps 759 mmHg 63%
    21:00 +29°C° 0 mm 2 mps 759 mmHg 65%
    22:00 +29°C° 0 mm 2 mps 759 mmHg 67%
    23:00 +28°C° 0 mm 2 mps 759 mmHg 68%
    Show more